GEFSMA_con_cape1000_186.txt.gz
Probability
16 16 16 13 16 3 3 3 3 3 0 3 10 6 6 13 16 19 48 77 77 77 61 58 55 58 61 55 58 65 52 45 48 45 48 26 26 26 23 13 13 19 23
13 13 13 10 10 3 3 3 3 0 6 6 10 6 6 16 13 16 32 71 71 74 65 58 58 48 52 61 61 58 55 45 52 55 45 48 42 42 26 19 10 13 23
6 3 10 3 0 3 6 0 0 3 3 3 6 6 13 13 16 13 19 45 65 65 65 65 58 55 55 48 48 58 52 65 71 65 58 55 58 55 45 35 26 16 26
6 3 3 3 3 0 0 0 0 3 3 0 3 0 0 0 6 6 6 10 29 42 61 71 68 65 52 45 42 52 55 58 61 58 65 68 48 55 52 39 32 29 16
26 10 3 0 3 3 3 0 0 0 0 0 0 0 0 0 0 3 3 6 10 16 29 48 74 77 65 68 55 55 58 61 65 61 52 55 52 58 45 35 39 32 26
29 13 10 0 3 3 3 0 0 0 0 0 0 0 0 0 0 0 0 0 3 3 10 26 39 68 74 81 77 68 55 55 61 55 45 48 48 58 42 29 26 26 19
19 13 16 10 3 3 0 0 0 0 0 0 0 0 0 0 0 0 0 0 0 3 3 16 19 19 32 55 68 71 68 55 58 58 45 39 48 39 32 32 29 19 13
19 16 13 13 6 3 3 0 0 0 0 0 0 0 0 0 0 0 0 0 0 3 10 0 6 10 16 23 16 29 71 65 68 58 55 55 39 35 35 29 26 16 6
16 16 10 10 6 3 6 3 0 0 0 0 0 0 0 0 0 0 0 0 0 0 3 6 3 3 6 10 6 10 32 58 65 61 58 58 55 39 32 29 26 23 6
26 19 13 10 3 3 3 3 0 0 0 0 0 0 0 0 0 0 0 0 0 0 0 0 3 0 6 10 0 0 6 10 29 58 68 55 52 42 35 29 29 26 23
23 26 13 10 6 3 3 3 0 0 0 0 0 0 0 0 0 0 0 0 0 0 0 0 0 0 3 6 3 0 0 3 6 13 55 58 55 48 42 39 35 23 26
16 19 19 10 6 0 0 0 0 0 0 0 0 0 0 0 0 0 0 0 0 0 0 0 0 0 3 3 0 0 0 0 0 0 3 32 42 52 48 39 39 26 23
23 26 19 10 10 3 0 0 0 0 0 0 0 0 0 0 0 0 0 0 0 0 0 0 0 3 0 3 3 0 0 0 0 0 0 0 6 16 19 23 29 23 19
19 13 13 10 10 6 6 0 0 0 0 0 0 0 0 0 0 0 0 0 0 0 0 0 0 0 3 3 0 0 3 0 0 0 0 0 0 0 6 6 13 13 13
13 6 3 6 6 3 6 3 0 0 0 0 0 0 0 0 0 0 0 0 0 0 0 0 0 0 0 0 0 0 0 0 0 0 0 0 0 0 0 0 0 0 0
10 10 6 3 3 0 0 0 0 0 0 0 0 0 0 0 0 0 0 0 0 0 0 0 0 0 0 0 0 0 0 0 0 0 0 0 0 0 0 0 0 0 0
13 16 16 6 3 0 0 0 0 0 0 0 0 0 0 0 0 0 0 0 0 0 0 0 0 0 0 0 0 0 0 0 0 0 0 0 0 0 0 0 0 0 0
13 13 13 10 10 10 3 3 3 3 0 0 0 0 0 0 0 0 0 0 0 0 0 0 0 0 0 0 0 0 0 0 0 0 0 0 0 0 0 0 0 0 0
6 0 0 3 3 6 6 6 3 3 3 3 3 3 3 0 0 0 0 0 0 0 0 0 0 0 0 0 0 0 0 0 0 0 0 0 0 0 0 0 0 0 0
3 3 3 0 0 0 0 0 0 3 3 3 3 3 3 3 3 3 0 0 0 0 0 0 0 0 0 0 0 0 0 0 0 0 0 0 0 0 0 0 0 0 0
3 3 0 0 0 0 0 0 0 0 0 0 0 0 0 0 0 0 0 3 0 0 0 0 0 0 0 0 0 0 0 0 0 0 0 0 0 0 0 0 0 0 0
6 0 3 3 0 0 0 0 0 0 0 0 0 0 0 0 0 0 0 0 0 0 0 0 0 0 0 0 0 0 0 0 0 0 0 0 0 0 0 0 0 0 0
3 3 0 0 3 0 0 0 0 0 0 0 0 0 0 0 0 0 0 0 0 0 0 0 0 0 0 0 0 0 0 0 0 0 0 0 0 0 0 0 0 0 0
3 3 3 3 0 0 0 0 0 0 0 0 0 0 0 0 0 0 0 0 0 0 0 0 0 0 0 0 0 0 0 0 0 0 0 0 0 0 0 0 0 0 0
3 3 3 3 0 0 0 0 0 0 0 0 0 0 0 0 0 0 0 0 0 0 0 0 0 0 0 0 0 0 0 0 0 0 0 0 0 0 0 0 0 0 0
3 3 0 0 0 0 0 0 0 0 0 0 0 0 0 0 0 0 0 0 0 0 0 0 0 0 0 0 0 0 0 0 0 0 0 0 0 0 0 0 0 0 0

GEFSMA_con_cape1000_192.txt.gz
Probability
52 52 74 74 45 58 58 52 48 65 61 42 32 29 29 29 32 35 74 68 71 68 58 55 61 58 52 48 55 45 45 39 35 39 39 39 39 29 16 16 23 19 13
58 58 71 74 52 55 45 52 39 58 65 42 39 32 29 35 29 39 42 61 65 68 58 55 55 55 55 58 55 48 39 42 48 52 42 42 35 32 23 6 16 13 16
74 61 68 68 55 58 74 65 58 48 48 48 42 39 42 45 35 48 45 52 58 52 55 55 48 52 52 52 55 52 48 45 52 42 48 45 42 39 39 19 10 16 19
81 77 65 58 71 55 61 68 45 42 42 45 42 39 42 52 35 42 42 42 42 42 45 52 48 52 48 45 45 48 52 58 52 45 42 42 39 45 42 29 16 23 16
74 77 65 68 71 55 55 52 45 52 42 45 42 39 29 39 45 26 32 35 45 48 45 61 55 58 52 48 48 52 52 58 58 52 45 42 42 35 39 39 29 32 13
77 77 68 71 65 65 74 68 61 68 61 58 16 26 29 19 32 35 32 32 39 42 39 39 52 58 61 71 65 65 61 55 58 55 48 45 52 48 42 35 35 29 23
81 87 65 77 74 74 71 48 58 61 65 61 35 26 19 16 26 42 32 26 29 35 35 39 39 55 61 55 61 74 71 65 65 61 55 55 55 52 42 32 26 26 19
87 77 84 71 74 84 74 74 74 65 48 52 45 42 32 39 68 13 32 35 26 29 32 32 52 65 48 58 45 48 65 65 58 65 65 65 58 61 45 39 29 23 19
81 87 81 77 71 65 81 84 81 81 65 55 52 42 29 19 19 16 19 26 52 42 39 32 45 58 68 55 61 35 48 65 74 68 74 71 68 55 45 32 23 23 13
84 84 84 77 81 71 81 81 58 81 84 71 61 58 39 19 23 16 32 23 35 65 48 16 19 48 68 65 65 29 23 23 29 55 71 74 65 58 42 35 29 26 26
87 90 84 84 84 84 81 81 77 81 81 65 52 65 45 52 16 23 23 23 23 29 32 39 42 29 42 58 68 48 10 6 6 16 45 65 65 52 52 39 32 35 29
90 84 87 84 84 87 84 90 84 77 87 87 77 52 32 35 32 32 23 35 23 3 13 23 16 29 39 39 32 6 3 0 0 0 6 32 48 42 42 42 42 45 39
90 90 77 84 84 87 84 81 84 81 71 81 77 68 48 29 35 45 35 16 13 13 19 10 19 26 16 23 35 3 0 0 0 0 0 0 6 19 26 32 32 35 39
74 71 74 77 84 84 77 87 87 81 74 81 65 77 68 48 48 39 39 29 29 23 13 16 6 13 19 26 13 0 13 0 0 0 0 0 0 0 0 3 16 16 16
68 74 68 68 71 71 71 77 74 77 84 81 71 81 71 58 55 55 42 39 35 16 16 23 23 16 26 48 6 16 29 0 0 0 0 0 0 0 0 0 0 0 0
65 68 65 61 71 71 71 71 68 71 74 71 74 68 68 61 55 61 48 45 35 32 19 3 26 16 23 0 10 23 26 3 0 0 0 0 0 0 0 0 0 0 0
68 71 71 65 65 65 68 74 58 61 65 74 61 55 65 58 61 55 48 42 52 35 29 16 19 29 52 48 16 29 23 42 10 0 0 0 0 0 0 0 0 0 0
65 65 61 61 65 68 68 68 68 52 52 55 55 52 52 45 55 58 61 52 45 52 29 23 35 32 42 52 42 45 16 6 16 0 0 0 0 0 0 0 0 0 0
61 65 65 61 61 55 58 65 61 48 42 45 45 45 42 55 58 58 55 48 45 23 35 23 13 48 42 35 35 32 19 45 0 0 0 0 0 0 0 0 0 0 0
58 58 55 52 55 55 52 52 52 48 48 42 48 52 42 42 35 39 35 42 35 39 42 32 23 19 39 29 29 32 32 32 13 0 6 0 0 0 0 0 0 0 0
39 52 48 48 45 39 35 39 35 32 42 42 45 42 35 10 6 13 6 29 26 39 39 32 23 19 19 35 35 26 23 29 26 13 16 13 13 10 0 0 0 0 0
45 48 48 39 35 19 3 0 10 39 35 39 39 42 23 3 0 0 0 0 0 13 16 16 23 16 23 19 23 6 16 23 23 26 26 16 13 13 16 10 0 0 0
39 42 35 32 32 29 0 0 0 6 29 32 29 23 13 0 0 10 3 0 0 0 0 10 10 13 13 10 16 10 19 16 16 16 23 19 16 10 6 0 0 0 0
35 39 42 29 39 26 3 0 0 3 16 29 29 26 23 16 6 10 13 10 10 10 0 0 3 6 3 3 3 3 16 16 13 19 10 6 10 13 0 0 0 0 0
32 35 32 29 32 29 3 0 0 6 16 19 19 23 16 16 6 3 6 13 6 6 0 0 0 0 0 0 3 0 6 13 10 6 10 6 10 13 16 6 0 0 0
29 29 23 23 23 23 6 0 0 3 13 10 16 13 6 6 6 0 3 6 6 10 6 6 0 0 0 0 0 0 3 3 6 3 10 6 10 10 0 0 3 3 3

GEFSMA_con_cape1000_198.txt.gz
Probability
90 87 90 84 90 87 81 90 94 81 71 58 48 48 42 42 42 45 39 68 71 77 61 52 58 55 48 39 39 35 42 29 32 35 35 29 26 23 19 19 19 23 16
87 90 90 87 90 90 87 87 87 87 90 74 55 48 52 42 58 48 32 65 74 77 68 55 52 58 55 42 42 45 45 39 45 48 42 42 45 39 29 19 19 19 23
94 87 94 94 90 87 87 90 81 87 81 58 48 52 48 48 45 68 58 52 45 71 71 58 58 61 58 52 58 48 55 52 55 58 52 52 52 35 26 35 29 29 29
97 94 97 90 97 87 81 81 81 74 81 81 74 61 52 58 58 65 68 68 52 29 55 61 58 55 58 55 48 55 52 55 52 55 52 55 48 52 35 26 32 32 29
94 94 97 94 94 87 84 77 81 77 71 77 77 65 55 61 61 55 55 52 61 61 32 52 74 68 55 58 55 48 55 55 65 52 45 45 42 45 48 32 29 29 29
94 90 94 90 87 87 84 87 81 81 74 74 42 32 39 52 65 65 65 52 55 58 45 42 52 55 65 61 68 65 61 61 55 52 48 52 48 42 52 45 35 26 23
90 97 84 97 90 87 81 77 77 68 71 74 65 61 65 55 55 71 81 58 48 42 48 55 29 39 29 71 71 71 68 68 58 58 48 55 55 55 48 42 32 26 23
87 68 94 94 94 87 84 74 84 65 68 74 77 61 45 48 65 26 74 77 42 48 52 35 45 55 45 26 26 58 74 71 71 61 61 55 55 55 58 52 39 26 23
87 90 100 97 97 90 90 77 77 74 74 74 74 61 45 23 35 45 55 52 58 65 45 45 48 68 58 48 35 23 55 65 74 71 65 65 65 58 52 55 42 29 26
90 87 94 94 90 87 81 81 77 74 84 74 71 77 61 58 32 29 39 42 55 71 58 26 19 52 65 65 65 39 29 29 45 74 71 68 58 58 45 42 32 32 26
94 94 94 90 87 90 87 74 77 74 77 74 71 68 68 61 52 42 29 35 48 45 61 65 48 48 48 48 65 48 19 10 10 29 65 65 65 55 45 42 42 39 39
100 97 94 94 94 94 90 81 84 81 77 74 74 71 71 77 55 42 29 29 32 48 55 58 55 55 48 39 42 32 13 3 0 3 10 19 42 45 45 42 35 35 32
90 94 90 90 90 90 84 87 84 77 81 77 77 77 71 74 77 65 39 26 13 23 52 48 39 42 29 29 39 19 3 0 0 0 0 3 10 19 19 26 29 29 29
87 94 94 87 87 84 81 87 87 84 77 77 65 71 71 81 71 61 52 35 23 13 32 45 42 39 23 42 42 10 0 0 0 0 0 0 0 0 3 3 6 6 10
68 74 81 74 81 84 84 81 81 87 84 77 74 74 77 68 77 68 68 58 26 10 6 10 32 32 42 35 16 10 29 6 0 0 0 0 0 0 0 0 0 0 0
71 71 77 77 81 81 77 81 81 81 81 77 77 77 77 65 58 61 61 61 48 23 6 6 32 32 35 13 0 23 35 6 0 0 0 0 0 0 0 0 0 0 0
74 74 77 81 84 84 77 74 74 77 74 71 68 68 68 68 77 65 61 61 52 48 19 16 19 35 35 32 29 29 35 23 10 3 0 0 0 0 0 0 0 0 0
77 74 74 77 68 71 74 71 68 65 65 61 58 58 55 55 58 58 55 55 52 48 39 13 19 32 29 42 35 26 16 13 19 0 0 0 0 0 0 0 0 0 0
77 71 71 71 65 61 61 58 55 52 61 61 58 55 52 45 52 42 48 35 45 23 39 13 10 26 26 23 32 29 16 19 13 0 0 0 0 0 0 0 0 0 0
71 68 68 68 65 52 48 52 52 58 52 48 58 48 42 35 39 35 35 42 35 32 29 19 13 19 13 13 19 13 10 10 10 6 3 0 0 0 0 0 0 0 0
61 68 65 61 52 45 45 48 45 45 42 42 39 32 32 23 19 16 10 23 10 13 13 10 13 10 13 10 6 6 0 0 3 6 13 3 3 3 0 0 0 0 0
48 48 48 45 45 29 10 6 19 39 42 39 39 32 26 23 10 0 0 0 0 3 6 10 6 6 13 13 3 0 0 0 0 10 10 10 3 0 0 0 0 0 0
48 48 48 39 35 23 3 0 0 19 29 39 32 32 23 13 10 6 3 0 0 0 0 3 6 3 6 10 3 0 0 0 3 6 6 3 6 6 3 0 0 0 0
52 48 45 45 32 19 6 0 0 6 16 26 29 29 26 16 6 10 10 6 10 3 3 3 3 3 6 6 6 6 0 0 3 3 3 0 3 6 6 3 0 0 0
48 42 39 32 32 16 6 0 0 6 23 19 19 19 13 13 10 3 3 13 6 6 6 0 0 0 0 0 0 0 3 3 3 3 6 3 0 6 6 6 3 0 0
42 39 29 29 23 16 6 0 0 6 10 13 10 13 10 6 3 0 0 6 6 6 6 3 0 0 0 0 0 0 3 3 0 0 0 6 0 0 0 6 3 0 0

GEFSMA_con_cape1000_204.txt.gz
Probability
16 13 19 6 19 10 10 13 6 6 6 6 6 10 6 0 3 3 26 74 74 74 71 65 65 68 58 48 45 52 48 42 45 55 48 35 23 26 29 23 23 16 26
13 13 6 6 6 10 3 10 10 3 3 6 10 6 3 3 0 3 6 65 74 74 71 61 61 58 52 52 48 48 39 45 45 48 55 48 42 35 29 26 23 29 23
13 10 6 10 13 6 10 6 0 0 3 0 0 3 3 3 0 6 3 6 39 68 71 61 61 61 55 52 45 45 52 48 48 48 55 58 55 55 45 35 35 26 26
26 19 10 16 16 6 6 3 0 0 0 0 0 0 0 3 6 6 3 6 6 13 55 65 65 71 58 58 55 45 48 58 55 48 39 45 42 52 45 42 35 32 32
29 26 29 26 19 10 6 10 3 0 0 0 0 0 0 3 3 6 6 3 6 6 6 35 81 77 61 65 65 68 55 55 55 55 39 39 39 45 35 39 39 32 32
32 19 19 23 16 13 10 6 6 0 0 3 3 3 0 0 0 0 0 0 0 3 6 6 19 39 81 74 74 68 71 65 55 55 48 42 48 45 39 32 29 29 19
26 19 23 16 16 10 10 13 3 3 3 3 0 0 0 0 0 0 0 0 3 0 0 6 6 6 10 61 77 71 68 68 65 58 55 52 52 52 39 39 26 19 16
19 23 19 19 19 10 13 6 3 3 0 3 0 0 0 0 0 3 0 0 0 0 0 0 0 6 6 6 6 55 74 71 61 61 61 65 58 61 39 35 29 19 16
32 29 19 19 23 23 13 13 13 10 3 0 0 0 0 0 0 0 0 0 0 0 0 0 0 0 3 3 3 6 48 58 61 68 68 61 52 45 42 35 26 26 16
39 39 29 29 26 23 16 13 10 6 6 3 0 0 0 0 0 0 0 0 0 0 0 0 0 0 0 0 0 3 6 19 39 58 68 74 68 45 42 35 26 19 19
35 39 35 29 26 23 13 13 13 10 10 6 6 0 0 0 0 0 0 0 0 0 0 0 0 0 0 0 0 0 3 6 10 26 48 55 52 45 45 32 26 29 29
35 32 29 29 29 29 29 13 16 13 10 6 6 0 0 0 0 0 0 0 0 0 0 0 0 0 0 0 0 3 3 0 0 3 10 23 39 45 42 39 32 29 29
29 32 29 23 23 19 23 16 13 19 16 13 6 0 0 0 0 0 0 0 0 0 0 0 0 0 0 0 0 3 6 0 0 0 3 3 6 13 16 26 29 26 26
32 39 29 23 23 23 26 23 16 13 10 10 10 10 3 3 0 0 0 0 0 0 0 0 0 0 0 0 0 0 3 0 0 0 0 0 0 0 3 3 6 10 10
29 26 26 32 35 32 32 26 16 23 16 13 16 13 10 3 6 3 0 0 0 0 0 0 0 0 0 0 0 0 0 0 0 0 0 0 0 0 0 0 0 0 0
29 29 26 26 32 39 35 26 19 19 16 13 13 6 3 10 3 3 0 0 0 0 0 0 0 0 0 0 0 0 0 0 0 0 0 0 0 0 0 0 0 0 0
32 32 35 29 29 32 26 26 23 16 13 13 10 13 10 6 6 6 3 0 0 0 0 0 0 0 0 0 0 0 0 0 0 0 0 0 0 0 0 0 0 0 0
32 32 29 32 29 26 26 23 19 16 16 13 13 3 6 10 6 0 0 0 0 0 0 0 0 0 0 0 0 0 0 0 0 0 0 0 0 0 0 0 0 0 0
35 29 26 29 29 29 26 23 19 13 13 6 6 6 3 3 0 0 0 0 0 0 0 0 0 0 0 0 0 0 0 0 0 0 0 0 0 0 0 0 0 0 0
32 26 26 26 16 16 23 19 16 13 13 6 0 0 0 0 0 0 0 0 0 0 0 0 0 0 0 0 0 0 0 0 0 0 0 0 0 0 0 0 0 0 0
29 26 19 16 13 13 13 13 16 16 10 6 6 3 3 3 0 0 0 0 0 0 0 0 0 0 0 0 0 0 0 0 0 0 0 0 0 0 0 0 0 0 0
19 16 16 10 10 10 10 6 6 10 10 10 6 3 3 3 3 0 0 0 0 0 0 0 0 0 0 0 0 0 0 0 0 0 0 0 0 0 0 0 0 0 0
13 13 10 10 10 10 6 3 3 6 10 10 10 3 3 3 3 3 3 0 0 0 0 0 0 0 0 0 0 0 0 0 0 0 0 0 0 0 0 0 0 0 0
13 10 10 10 10 10 6 3 0 3 3 6 6 3 3 3 3 0 0 0 0 0 0 0 0 0 0 0 0 0 0 0 0 0 0 0 0 0 0 0 0 0 0
13 10 10 10 10 10 10 3 0 0 3 0 0 0 0 0 0 0 0 0 0 0 0 0 0 0 0 0 0 0 0 0 0 0 0 0 0 0 0 0 0 0 0
10 10 10 10 10 10 10 3 0 0 3 3 0 0 0 0 0 0 0 0 0 0 0 0 0 0 0 0 0 0 0 0 0 0 0 0 0 0 0 0 0 0 0

GEFSMA_con_cape1000_210.txt.gz
Probability
3 0 0 3 0 0 3 0 6 10 6 6 6 10 6 6 6 10 19 65 81 77 61 58 52 48 55 58 48 45 32 42 42 48 45 32 19 16 16 23 19 26 32
3 3 0 0 0 0 0 0 0 3 0 0 6 6 6 3 10 6 13 35 71 77 74 55 58 42 45 48 55 42 39 45 39 48 45 39 26 26 23 16 26 23 29
0 0 0 0 0 3 0 0 0 0 0 0 3 0 3 0 10 10 10 26 35 61 68 61 55 52 52 48 58 42 48 42 45 45 45 32 45 35 32 29 29 32 39
3 0 0 3 0 3 0 0 3 0 0 0 0 0 0 0 0 10 10 13 23 23 45 52 52 65 55 55 45 52 48 45 42 32 39 39 32 42 35 39 39 32 35
10 0 0 0 0 0 0 0 3 0 0 0 0 0 0 0 3 10 10 10 6 6 10 29 58 68 58 55 58 61 58 48 48 39 42 39 29 35 32 29 39 35 26
16 3 6 0 3 0 0 0 0 0 0 0 0 0 0 0 3 3 0 6 6 6 6 6 23 35 58 61 65 68 68 61 45 45 42 42 32 32 29 29 26 32 19
10 6 6 6 3 3 0 0 0 0 0 0 0 0 0 0 0 3 0 0 3 6 6 6 10 13 16 39 61 61 58 65 61 65 61 48 52 39 29 26 19 23 16
6 6 6 6 3 3 0 0 0 0 0 0 0 0 0 0 0 0 3 0 0 0 3 3 3 3 3 10 10 29 52 61 61 61 58 55 52 52 23 23 19 10 6
16 6 6 6 6 6 3 0 0 0 0 0 0 0 0 0 0 0 0 3 0 0 0 3 0 3 3 3 3 3 23 39 55 61 52 52 52 32 32 29 16 6 3
16 13 10 10 10 6 3 3 0 0 0 0 0 0 0 0 0 0 0 0 0 0 0 0 0 0 3 3 3 0 3 3 23 35 48 52 48 32 23 26 23 16 10
13 16 10 6 3 3 3 0 0 0 0 0 0 0 0 0 0 0 0 0 0 0 0 3 0 0 0 0 3 0 0 3 3 19 23 39 42 32 29 26 26 32 29
16 10 10 3 3 3 3 3 0 0 0 0 0 0 0 0 0 0 0 0 0 0 0 0 3 0 0 0 0 0 0 0 0 3 3 16 16 29 35 26 29 29 32
13 13 10 10 13 10 10 6 6 0 0 0 0 0 0 0 0 0 0 0 0 0 0 0 0 3 0 3 0 0 0 0 0 0 0 3 3 3 10 23 13 13 19
16 16 10 13 13 13 13 10 10 6 10 6 3 3 0 0 0 0 0 0 0 0 0 0 0 0 0 0 0 0 0 0 0 0 0 0 0 3 3 3 3 3 6
16 16 16 16 13 13 13 13 10 6 6 6 6 3 0 3 0 0 0 0 0 3 0 0 0 0 0 0 0 0 0 0 0 0 0 0 0 0 0 0 0 0 0
19 16 16 16 19 19 13 13 6 10 6 10 10 0 0 0 0 0 0 0 0 3 3 3 0 0 0 0 0 0 0 0 0 0 0 0 0 0 0 0 0 0 0
16 16 10 13 13 16 16 16 13 10 10 3 3 3 3 0 0 3 0 0 0 0 0 0 0 0 0 0 0 0 0 0 0 0 0 0 0 0 0 0 0 0 0
13 13 13 16 16 16 13 13 13 16 10 10 6 6 3 3 3 3 0 0 0 0 0 0 0 0 0 0 0 0 0 0 0 0 0 0 0 0 0 0 0 0 0
16 13 13 10 13 10 16 13 13 13 10 6 3 3 3 0 0 0 0 0 0 0 0 0 0 0 0 0 0 0 0 0 0 0 0 0 0 0 0 0 0 0 0
16 13 6 6 13 13 13 13 13 10 6 6 3 0 3 3 3 3 0 0 0 0 0 0 0 0 0 0 0 0 0 0 0 0 0 0 0 0 0 0 0 0 0
13 6 6 6 6 6 10 10 6 10 10 10 6 6 6 3 3 0 3 3 3 3 0 0 0 0 0 0 0 0 0 0 0 0 0 0 0 0 0 0 0 0 0
13 10 10 10 10 10 3 3 3 10 10 10 10 10 10 3 3 0 0 0 0 0 3 0 3 3 3 3 0 0 0 0 0 0 0 0 0 0 0 0 0 0 0
13 13 10 13 13 6 3 0 0 3 6 10 10 10 6 6 3 6 3 0 0 0 0 0 0 0 0 0 0 0 0 0 0 0 0 0 0 0 0 0 0 0 0
13 13 13 13 10 10 6 0 0 3 3 3 6 6 6 6 3 0 3 0 0 0 0 0 0 0 0 0 0 0 0 0 0 0 0 0 0 0 0 0 0 0 0
13 13 13 10 10 10 10 0 0 0 3 3 3 3 3 0 0 0 0 0 0 0 0 0 0 0 0 0 0 0 0 0 0 0 0 0 0 0 0 0 0 0 0
10 10 6 6 6 6 6 0 0 3 3 3 0 0 0 0 0 0 0 0 0 0 0 0 0 0 0 0 0 0 0 0 0 0 0 0 0 0 0 0 0 0 0

GEFSMA_con_cape1000_216.txt.gz
Probability
65 48 58 61 39 39 35 52 35 42 45 35 26 19 35 39 26 19 55 61 58 61 52 58 55 55 55 48 48 52 48 42 45 48 48 35 35 39 29 26 29 39 42
74 61 65 68 45 42 42 52 45 58 55 48 39 39 29 32 35 42 45 65 68 68 58 58 48 52 52 48 45 45 45 52 45 45 42 35 29 35 35 35 19 26 32
65 61 58 61 52 48 61 61 48 58 65 42 42 35 39 39 26 26 32 48 52 65 58 61 58 52 52 45 45 45 48 48 42 42 42 29 32 35 35 35 29 19 29
68 77 65 61 61 52 48 55 58 45 52 39 42 35 35 55 32 35 29 48 48 35 52 65 55 48 52 48 45 45 42 48 48 42 39 35 29 32 35 39 35 35 32
71 74 71 71 77 48 52 39 48 52 48 58 45 55 42 45 45 39 39 29 39 45 48 58 65 52 42 45 52 48 52 52 55 39 32 32 29 29 29 29 26 26 26
74 65 58 71 58 45 65 52 55 65 61 65 29 32 35 32 45 52 35 23 42 32 32 39 61 58 55 48 55 55 48 52 52 42 32 39 32 29 26 26 19 23 19
68 77 61 74 68 58 55 45 55 45 52 48 39 45 32 23 42 55 45 39 26 32 35 55 55 58 61 48 42 55 55 55 52 48 55 42 35 35 29 26 23 26 23
81 71 84 65 68 87 74 68 71 55 29 35 39 35 23 32 48 0 35 45 29 29 32 32 55 65 58 58 55 42 42 48 55 58 58 55 52 39 35 32 26 19 16
81 84 81 74 81 71 71 81 74 68 52 45 42 26 29 26 16 13 23 26 32 45 39 45 52 71 81 68 68 29 39 42 45 58 61 55 48 45 35 29 26 19 13
87 87 87 81 84 71 77 68 52 68 65 52 52 61 45 29 32 19 26 19 32 35 39 23 35 42 61 71 81 23 13 6 23 35 52 58 55 39 32 23 26 32 23
87 81 84 84 87 68 71 65 65 71 68 61 52 48 52 52 35 32 35 29 23 35 32 32 48 42 52 61 71 42 10 3 3 6 29 35 35 29 29 23 29 32 32
84 74 68 74 74 71 68 74 77 61 68 68 68 61 55 42 45 42 39 55 48 32 32 45 39 42 42 52 39 6 6 0 0 3 3 13 16 16 19 26 26 29 29
68 77 71 84 77 74 68 61 61 65 61 68 71 74 61 52 42 58 48 35 39 32 32 23 29 32 26 39 45 13 6 0 0 0 0 0 3 3 3 6 6 26 26
68 71 81 71 68 71 55 61 55 58 58 58 48 61 68 48 55 55 45 48 39 35 26 16 26 32 23 29 13 0 19 0 0 0 0 0 0 0 3 3 3 3 3
71 71 61 68 61 65 58 65 65 65 68 61 52 55 61 52 55 48 45 45 42 32 19 16 23 35 29 35 13 29 23 6 0 0 0 0 0 0 0 0 0 0 0
74 68 61 61 65 58 65 68 65 68 61 58 58 52 58 61 52 52 42 48 48 42 26 23 35 26 29 10 6 19 19 3 0 0 0 0 0 0 0 0 0 0 0
65 68 58 61 61 58 61 61 58 55 48 45 45 45 48 55 52 52 55 52 45 55 32 29 23 16 23 23 16 16 13 16 19 0 0 0 0 0 0 0 0 0 0
55 55 52 55 45 42 58 55 45 35 42 39 42 48 48 42 55 48 48 39 42 42 32 19 10 10 13 19 16 16 13 6 13 0 0 0 0 0 0 0 0 0 0
52 48 48 48 45 45 52 39 35 32 32 32 29 32 32 29 32 32 32 32 35 16 23 16 13 13 10 13 13 13 13 16 6 3 0 0 0 0 0 0 0 0 0
48 45 42 45 42 26 26 26 26 19 23 29 29 29 23 23 23 23 19 29 26 23 16 10 10 10 13 10 13 13 13 13 13 3 6 3 0 0 0 0 0 0 0
35 42 42 39 26 19 19 23 23 16 29 26 26 19 19 13 10 13 13 23 16 16 16 10 10 10 10 10 13 13 13 13 13 10 10 10 10 6 3 0 0 0 0
39 39 39 29 26 19 13 13 13 16 29 29 23 19 13 13 10 6 3 3 6 13 13 13 13 10 10 10 13 13 10 10 6 6 10 10 10 10 6 3 0 0 0
39 39 26 23 23 19 13 10 6 19 19 19 19 16 10 10 10 10 6 0 0 0 0 13 13 13 13 13 13 6 6 10 10 3 6 3 0 3 6 0 0 0 0
39 32 23 23 23 16 10 3 3 10 16 19 16 10 13 13 10 6 6 6 10 10 10 6 13 13 10 10 10 10 10 6 6 0 3 3 3 3 0 0 0 0 0
26 23 19 19 23 13 10 3 3 13 16 16 10 10 10 10 6 3 6 6 10 13 3 0 0 0 0 0 3 3 3 3 0 0 3 3 3 3 0 0 0 0 0
19 16 16 16 13 13 6 3 3 6 13 10 10 10 6 6 3 3 6 6 10 10 6 0 0 0 0 0 0 0 3 3 0 0 0 3 3 3 0 0 0 0 0

GEFSMA_con_cape1000_222.txt.gz
Probability
81 81 84 87 84 77 87 87 77 71 74 65 52 52 52 45 48 42 45 81 81 74 65 61 55 61 58 55 52 45 42 48 45 55 42 32 35 29 23 26 26 32 39
81 84 84 84 81 81 77 84 77 81 74 74 65 55 55 58 61 45 32 71 81 77 77 58 58 58 58 58 55 52 48 48 58 52 39 42 48 45 32 26 26 29 45
90 84 87 84 84 87 84 87 71 74 71 61 58 58 52 58 58 52 45 39 35 71 74 61 58 52 48 48 52 42 48 45 58 52 45 45 48 45 48 35 39 35 35
90 87 84 74 77 77 81 84 84 84 74 71 68 61 58 61 58 55 58 58 39 23 52 61 68 65 52 48 52 48 45 45 52 55 42 42 39 39 42 42 39 32 35
77 84 87 87 77 81 77 65 81 77 71 71 71 65 55 61 61 48 58 55 55 55 35 45 74 74 55 48 48 45 48 48 55 45 45 35 29 35 32 29 32 32 32
81 84 84 84 74 81 81 77 74 77 77 74 48 45 71 65 71 61 61 55 55 52 39 39 55 52 71 74 68 61 48 45 45 45 45 32 32 32 23 26 32 35 26
81 84 84 87 84 81 74 81 84 74 77 81 68 65 58 65 71 71 61 61 45 55 55 48 32 32 35 65 65 71 61 58 55 55 48 45 35 35 32 26 16 16 19
74 61 90 90 87 84 84 84 84 84 74 71 71 65 42 42 61 32 55 61 48 55 55 52 45 55 48 26 10 55 68 58 58 58 58 48 39 32 29 29 19 16 16
77 84 87 84 90 87 90 87 81 74 71 77 71 74 58 42 35 55 52 52 61 58 48 42 45 48 52 39 26 6 39 45 52 55 55 55 45 35 26 23 23 23 19
81 81 81 81 84 87 90 81 84 81 77 74 71 77 71 71 48 42 45 48 52 55 52 29 32 42 45 45 39 19 16 26 35 42 48 52 52 32 23 19 16 19 23
81 77 74 74 77 84 81 77 84 84 84 77 77 68 71 71 55 48 39 42 52 42 32 35 32 39 32 35 45 26 6 3 10 16 29 32 35 35 29 23 16 16 23
77 71 71 74 71 81 77 74 77 74 74 68 71 65 58 48 55 45 39 29 19 29 45 32 32 32 32 19 19 19 10 0 0 3 6 13 16 26 32 19 16 13 13
77 74 71 77 77 74 74 77 81 71 68 68 65 65 61 48 45 39 32 35 26 32 39 29 29 29 13 23 26 10 3 0 0 0 0 3 6 6 10 13 10 10 10
81 77 77 81 77 77 68 68 71 71 65 65 58 61 55 52 48 48 39 35 26 19 23 23 19 16 19 26 13 3 6 0 0 0 0 0 0 3 3 3 3 3 3
68 68 77 77 77 74 68 61 68 65 65 68 61 55 55 55 55 48 52 55 35 16 10 19 19 13 23 26 13 6 10 3 0 0 0 0 0 0 0 0 0 0 0
68 68 65 68 68 65 65 65 68 68 58 61 61 58 55 52 61 58 52 45 39 35 16 23 26 19 13 3 3 3 13 6 0 0 0 0 0 0 0 0 0 0 0
68 61 61 61 68 61 58 65 65 65 55 55 52 52 48 48 55 55 52 52 52 39 29 23 26 19 23 19 10 16 10 6 6 0 0 0 0 0 0 0 0 0 0
58 55 58 55 55 52 52 52 48 48 39 39 35 39 42 42 45 45 45 39 39 39 29 16 23 19 19 19 16 16 10 6 10 3 0 0 0 0 0 0 0 0 0
65 61 58 52 48 48 48 42 35 35 39 35 32 35 35 35 35 39 35 32 32 16 26 19 13 13 16 13 13 10 10 13 6 3 0 0 0 0 0 0 0 0 0
55 58 55 48 48 39 32 32 32 26 29 29 23 29 29 19 23 26 16 19 23 19 16 13 10 13 13 10 6 3 3 3 3 3 3 0 0 0 0 0 0 0 0
52 48 45 39 29 29 23 29 26 23 23 19 19 19 16 16 13 16 16 19 19 19 16 13 13 10 10 6 6 3 3 3 3 3 3 6 6 6 0 0 0 0 0
45 42 42 32 23 19 16 19 23 26 26 19 19 19 16 10 6 6 3 3 6 10 13 10 10 10 10 10 10 6 3 3 0 6 3 3 3 0 3 3 0 0 0
39 42 35 23 19 16 10 6 6 26 26 26 19 19 13 6 6 6 6 3 3 3 3 10 13 13 13 13 10 10 6 6 6 6 3 3 0 0 0 0 0 0 0
39 32 26 23 19 10 6 3 0 16 16 16 16 13 10 10 6 10 10 6 6 10 6 3 10 10 13 13 6 6 10 10 10 10 3 0 0 0 0 0 0 0 0
32 26 19 23 13 6 3 3 0 10 13 13 13 13 10 10 10 3 10 10 10 10 6 3 3 0 0 0 0 6 6 0 0 0 3 3 0 0 0 0 0 0 0
29 19 19 13 6 3 3 3 0 3 10 10 6 6 6 6 3 3 6 10 10 10 10 3 0 0 0 0 0 0 0 0 0 0 3 0 0 0 0 0 0 0 0

GEFSMA_con_cape1000_228.txt.gz
Probability
10 6 0 3 3 0 3 3 0 0 3 3 3 3 3 3 3 0 13 84 90 87 74 68 61 52 52 42 42 42 35 32 29 39 32 35 29 32 23 23 19 23 26
6 10 6 3 3 0 0 3 0 0 0 0 0 0 0 3 0 0 6 48 77 81 77 65 61 68 65 58 48 39 42 35 39 42 45 39 42 39 26 23 23 26 35
6 0 6 6 10 3 3 3 0 0 0 0 0 3 3 3 3 3 10 16 42 65 77 74 68 68 65 52 48 48 39 39 48 52 39 48 52 58 48 26 29 29 29
3 6 10 6 6 10 3 3 0 0 0 3 3 3 0 0 3 6 3 3 3 19 52 74 71 71 65 58 65 52 48 42 45 35 35 32 29 39 39 32 35 35 23
23 13 13 3 3 3 3 0 6 3 3 3 3 3 3 3 3 0 3 0 0 3 6 35 65 68 65 65 71 68 52 42 42 32 32 29 26 26 26 23 16 16 16
23 16 6 3 3 0 0 0 0 3 3 3 3 3 3 3 0 0 0 0 3 3 0 3 16 35 65 65 71 74 61 52 48 35 29 32 26 35 19 13 13 10 13
26 16 19 13 3 0 0 0 0 3 3 0 3 3 3 0 0 0 0 0 0 0 0 0 0 0 6 48 55 68 71 68 55 55 45 39 35 39 32 23 13 10 6
23 35 13 16 3 0 3 3 3 3 3 3 3 3 3 0 0 0 0 0 0 0 0 0 0 0 0 3 6 35 55 68 58 52 55 45 42 42 23 16 10 6 3
23 19 19 13 6 6 3 6 3 6 3 3 3 3 3 3 0 0 0 3 0 0 0 0 0 0 0 0 0 10 29 42 55 45 45 45 39 26 23 19 6 10 6
26 19 19 23 6 6 6 3 3 3 3 3 3 3 3 3 3 3 0 0 0 0 0 0 0 0 0 0 0 0 3 13 29 39 35 35 35 29 23 13 6 6 6
32 29 29 16 13 16 13 6 3 6 3 3 3 3 3 3 3 3 3 0 0 0 0 0 0 0 0 0 0 0 0 3 3 19 29 35 29 26 29 23 16 10 6
32 32 23 16 16 16 13 6 6 6 6 3 3 3 3 3 3 3 3 0 0 0 0 0 0 0 0 0 0 0 0 0 3 3 6 13 19 19 16 23 16 16 19
23 29 23 13 16 16 19 13 13 13 13 10 10 6 6 3 3 3 3 3 0 0 0 0 0 0 0 0 0 3 0 0 0 0 3 6 6 6 6 6 6 10 6
23 16 13 13 16 19 23 19 19 16 13 13 13 13 10 10 0 0 0 0 0 0 0 0 0 0 0 0 0 0 3 0 0 0 0 0 3 3 6 6 6 6 3
29 23 19 19 16 19 23 19 19 19 19 16 13 10 10 10 3 0 3 0 3 3 0 0 0 0 0 0 0 0 0 0 0 0 0 0 0 0 0 0 0 0 0
29 29 26 26 26 29 23 19 16 13 10 10 10 10 6 6 3 3 10 3 0 3 3 0 0 0 0 3 3 0 0 0 0 0 0 0 0 0 0 0 0 0 0
26 26 29 26 26 26 23 19 16 10 10 10 10 10 10 6 6 6 10 3 3 3 3 3 3 0 3 3 3 3 0 0 0 0 0 0 0 0 0 0 0 0 0
29 29 29 32 32 26 19 16 16 16 13 13 13 13 13 13 10 10 10 6 6 3 3 6 3 3 3 3 3 3 3 3 3 3 0 0 0 0 0 0 0 0 0
29 29 32 29 29 26 16 16 10 10 10 13 13 13 13 13 13 13 13 10 10 6 3 3 3 3 3 3 3 3 3 3 3 3 0 0 0 0 0 0 0 0 0
29 26 23 19 16 16 13 10 10 10 10 10 10 10 13 13 13 13 10 10 10 6 3 3 3 3 3 3 3 3 3 3 3 3 0 0 0 0 0 0 0 0 0
23 23 19 13 13 16 13 13 13 13 10 10 10 10 10 13 10 6 6 6 6 6 3 3 3 3 3 3 3 3 3 0 0 0 0 0 0 0 0 0 0 0 0
19 16 13 13 13 13 10 10 6 6 6 6 6 10 10 6 6 6 3 3 6 6 6 3 3 3 3 3 3 3 0 0 0 0 0 0 0 0 0 0 0 0 0
16 13 13 10 10 6 6 3 3 3 6 6 6 6 3 6 6 6 6 3 3 3 3 3 3 3 3 3 3 3 0 0 0 0 0 0 0 0 0 0 0 0 0
13 10 6 6 6 6 6 3 3 0 3 3 3 3 3 6 6 3 6 6 6 6 3 3 3 3 3 3 3 0 0 0 0 0 0 0 0 0 0 0 0 0 0
6 6 6 6 6 6 3 3 3 3 3 3 3 3 6 3 3 0 3 6 6 3 3 3 0 0 0 0 0 0 0 0 0 0 0 0 0 0 0 0 0 0 0
6 6 6 6 6 3 3 3 3 3 3 3 3 3 3 3 0 0 0 0 3 3 0 0 0 0 0 0 0 0 0 0 0 0 0 0 0 0 0 0 0 0 0

GEFSMA_con_cape1000_234.txt.gz
Probability
0 0 0 0 0 0 0 0 0 0 3 3 3 3 3 3 6 6 10 55 81 77 68 55 48 48 45 29 29 29 29 26 29 32 32 26 19 19 16 29 13 13 13
0 0 0 0 0 0 0 0 0 0 0 0 0 0 3 3 10 13 16 32 65 68 74 55 52 32 35 39 39 26 29 26 26 29 26 32 26 32 23 6 13 10 19
0 0 0 0 0 0 3 3 0 0 0 0 0 3 3 6 6 13 16 19 29 55 58 61 61 55 42 32 39 39 35 39 29 29 26 23 26 26 26 29 16 10 13
0 0 0 0 0 0 0 0 0 0 0 3 3 3 3 3 3 13 16 16 16 23 32 55 61 52 48 45 42 45 39 35 35 29 19 23 19 19 19 23 23 19 16
0 3 0 0 0 0 0 0 3 0 0 3 3 3 3 3 3 3 10 10 13 16 19 29 58 58 48 45 48 48 48 35 42 32 26 19 16 29 23 19 13 16 13
3 0 0 0 0 0 0 0 0 0 0 0 3 3 3 3 3 3 3 3 3 3 3 6 23 32 45 52 52 45 48 45 42 42 32 26 19 23 26 26 16 6 10
3 6 6 0 0 0 0 0 0 0 3 3 3 3 3 3 3 3 3 0 0 0 0 3 3 10 13 32 45 45 42 39 45 39 42 35 32 32 19 23 19 3 3
10 10 3 0 3 3 0 0 3 3 3 3 3 3 3 3 3 3 0 0 0 0 0 0 3 3 6 6 6 23 39 35 39 42 42 39 42 39 26 19 16 13 3
16 6 6 3 6 3 3 3 3 3 3 3 3 3 3 3 3 3 0 0 0 0 0 0 0 3 3 3 3 3 13 29 32 32 35 29 32 32 23 16 13 10 13
10 16 10 10 6 3 3 3 3 3 3 3 3 3 3 3 3 3 3 0 0 0 0 0 0 0 0 3 3 3 3 3 10 26 29 32 32 26 19 13 13 13 13
3 10 10 6 3 3 3 3 3 3 3 3 3 3 3 3 3 3 3 3 0 0 0 0 3 0 0 0 0 0 0 3 3 3 19 35 26 19 19 16 19 16 16
10 10 13 10 10 6 6 3 3 3 3 3 3 3 3 3 3 3 3 3 0 0 0 0 0 0 0 0 0 0 0 0 0 3 3 10 13 16 16 13 13 16 13
10 10 13 10 10 10 6 3 3 3 3 3 3 3 3 3 3 3 3 6 6 3 0 0 3 3 3 0 0 0 0 0 0 0 0 3 6 6 6 6 10 13 13
13 10 10 10 10 10 10 3 3 3 3 3 6 6 6 6 6 3 6 6 6 3 3 3 3 3 3 0 0 0 0 0 0 0 0 0 0 3 6 6 6 6 6
13 13 13 13 16 10 10 10 3 6 6 6 10 10 6 6 6 6 6 6 6 10 6 6 3 3 3 3 0 3 3 0 0 0 0 0 0 0 0 0 0 0 0
13 16 16 16 16 19 19 13 10 6 3 3 3 6 3 3 3 6 6 6 6 6 6 6 3 3 3 3 3 3 3 0 0 0 0 0 0 0 0 0 0 0 0
16 19 19 19 16 16 13 13 6 6 6 6 6 6 6 6 3 3 3 6 6 6 3 6 3 3 3 3 3 3 3 3 3 0 0 0 0 0 0 0 0 0 0
23 16 13 13 13 13 13 10 10 10 10 10 10 10 10 10 10 6 3 6 10 6 3 3 3 3 3 3 3 6 3 3 6 0 0 0 0 0 0 0 0 0 0
13 13 13 10 10 10 6 10 6 10 10 10 10 10 10 10 10 10 6 6 6 6 6 6 6 3 3 3 3 3 6 6 6 3 0 0 0 0 0 0 0 0 0
13 13 13 13 10 10 10 10 10 10 10 6 6 6 6 10 10 10 10 6 6 6 10 3 3 3 3 3 3 6 6 6 3 3 0 0 0 0 0 0 0 0 0
16 16 13 13 10 10 13 10 6 6 6 6 6 6 6 3 3 3 3 6 3 6 6 6 6 6 6 3 3 3 6 3 3 0 0 0 0 0 0 0 0 0 0
16 13 13 10 13 10 6 3 3 10 6 3 3 3 3 3 3 3 0 0 0 3 6 6 6 6 6 3 3 3 3 3 3 0 0 0 0 0 0 0 0 0 0
13 13 6 10 10 6 6 3 3 3 6 3 3 3 3 3 3 3 3 0 0 0 0 3 6 6 6 3 3 3 3 3 3 0 0 0 0 0 0 0 0 0 0
10 6 6 6 6 6 3 3 3 3 3 3 3 3 3 3 3 3 3 3 3 0 0 0 0 0 0 0 0 0 3 0 0 0 0 0 0 0 0 0 0 0 0
6 6 6 6 6 6 6 3 3 3 3 3 3 3 3 3 0 0 0 3 3 3 0 0 0 0 0 0 0 0 0 0 0 0 0 0 0 0 0 0 0 0 0
6 6 6 6 6 6 3 3 3 3 3 3 3 3 0 0 0 0 0 0 3 3 0 0 0 0 0 0 0 0 0 0 0 0 0 0 0 0 0 0 0 0 0

GEFSMA_con_cape1000_240.txt.gz
Probability
42 32 52 52 29 35 35 52 45 48 45 19 23 16 19 23 23 19 48 55 55 52 52 45 35 29 29 32 29 26 29 26 29 29 29 29 23 32 32 32 19 23 26
55 52 52 58 29 32 35 48 39 35 35 42 35 23 19 23 26 29 39 45 61 55 55 42 29 32 26 26 32 32 32 32 35 29 29 23 29 26 26 23 19 23 23
48 45 48 48 39 39 45 52 26 29 32 26 32 35 29 32 32 32 35 39 45 45 58 58 45 35 29 26 32 35 32 39 39 42 39 35 32 26 26 29 26 16 6
61 65 52 42 48 42 39 42 26 26 26 32 39 45 32 45 32 42 35 42 48 29 39 48 52 42 35 35 35 42 39 39 39 35 29 29 29 32 29 29 23 19 13
58 58 55 45 52 42 39 32 32 42 39 48 29 42 39 32 42 32 32 35 39 45 45 55 48 48 45 45 39 39 35 42 35 42 32 29 32 35 29 32 13 13 10
61 61 55 58 52 45 52 55 58 61 52 52 19 23 32 32 39 39 45 39 39 42 39 39 42 39 39 45 52 48 39 39 39 42 42 39 32 32 23 16 16 13 10
52 55 48 65 55 58 58 42 58 52 55 58 39 42 29 29 35 39 48 45 35 35 45 42 45 45 42 26 29 35 35 39 39 32 42 45 39 29 19 16 16 13 10
61 52 61 58 61 68 61 68 71 58 52 48 48 45 35 48 45 26 52 55 42 35 26 23 42 45 32 32 23 26 35 39 32 26 26 29 35 29 23 19 16 13 6
65 65 52 55 58 48 58 71 65 65 55 58 58 48 45 29 42 32 32 42 45 42 35 32 26 32 35 42 42 19 26 29 23 23 26 26 29 32 26 19 13 13 6
61 61 55 55 55 45 55 45 42 45 58 52 58 68 55 32 32 29 32 32 35 39 35 26 23 35 32 45 42 16 16 13 26 23 23 23 26 26 29 23 19 10 13
68 61 61 58 58 48 48 52 48 65 58 55 52 42 48 55 32 35 35 29 29 32 35 26 29 32 26 39 42 19 13 3 3 16 19 29 23 23 29 19 19 16 10
65 61 58 55 48 45 52 61 61 65 65 65 58 48 52 48 52 45 39 35 29 23 19 32 29 26 35 35 29 13 10 0 0 3 3 10 13 10 13 16 16 16 16
58 58 55 58 48 55 58 58 61 52 52 65 68 55 55 45 52 45 42 23 23 29 32 23 32 32 19 26 23 10 10 0 0 0 0 3 6 6 6 6 6 13 16
58 48 52 52 58 58 48 55 42 52 55 52 42 61 52 32 35 35 35 35 29 29 29 26 23 23 26 23 10 3 10 0 0 0 0 0 0 0 0 6 6 6 6
52 52 52 48 55 55 52 52 52 55 52 45 42 52 48 45 39 35 35 45 26 19 26 35 23 16 13 16 10 10 13 6 0 0 0 0 0 0 0 0 0 0 0
55 48 52 39 45 48 48 48 52 52 48 52 55 52 45 32 39 29 29 32 35 23 13 26 26 13 16 6 10 10 10 10 3 0 0 0 0 0 0 0 0 0 0
48 55 48 48 48 48 48 45 39 42 45 45 39 35 42 42 39 39 35 39 35 32 16 19 16 10 16 13 13 13 10 10 10 3 0 0 0 0 0 0 0 0 0
45 45 48 42 42 42 39 39 32 39 35 32 32 29 26 32 39 32 35 32 35 29 19 19 16 16 16 16 16 13 10 10 13 3 0 0 0 0 0 0 0 0 0
35 35 42 39 39 35 39 35 35 39 35 32 26 23 23 23 23 26 35 29 26 19 23 16 13 16 16 13 13 13 10 13 10 3 0 0 0 0 0 0 0 0 0
32 32 39 35 32 35 26 29 29 26 26 26 23 19 19 19 19 23 23 26 19 19 19 16 13 13 16 13 13 13 13 13 13 6 3 0 0 0 0 0 0 0 0
32 35 32 26 26 26 23 23 16 19 23 23 19 16 10 6 6 6 10 16 13 16 16 16 13 13 13 13 13 13 13 13 13 13 3 0 0 0 0 0 0 0 0
32 29 26 26 26 16 6 6 10 19 16 16 23 16 6 6 6 3 3 3 3 6 10 10 6 10 16 13 13 10 10 10 10 10 6 6 3 3 0 0 0 0 0
32 32 29 29 19 13 6 6 6 16 10 10 10 10 6 6 6 6 3 3 3 0 0 6 10 10 10 13 13 10 10 10 10 10 6 6 6 3 0 0 0 0 0
32 32 26 23 23 10 6 6 3 10 10 10 10 10 6 6 6 6 3 3 3 6 3 3 3 6 6 6 6 10 10 10 10 6 6 3 0 3 0 3 0 0 0
29 23 23 19 16 10 3 6 0 10 10 6 6 6 6 6 3 0 0 3 3 3 0 0 0 0 0 0 0 6 6 10 3 3 3 3 0 3 3 3 0 0 0
23 23 19 13 10 3 3 0 0 10 13 6 6 6 0 0 0 0 0 3 3 3 3 0 0 0 0 0 0 0 3 3 3 0 0 0 0 3 3 3 3 0 0

GEFSMA_con_cape1000_246.txt.gz
Probability
77 77 84 87 74 81 81 84 77 71 68 65 42 35 35 23 29 32 29 48 58 55 42 35 42 42 35 26 23 19 23 23 26 29 29 29 29 29 26 29 23 19 19
84 81 74 81 84 81 84 84 77 74 74 71 52 55 48 32 42 35 19 42 52 45 45 39 29 32 29 26 19 23 19 19 32 32 29 32 29 35 29 23 19 23 23
84 81 84 81 84 84 87 81 77 68 68 65 68 52 45 48 52 48 29 29 39 48 55 52 39 42 42 26 23 26 29 29 23 26 26 29 23 26 26 23 13 23 19
74 87 87 81 77 77 81 84 71 68 61 58 61 65 58 58 45 48 48 42 32 26 29 55 55 48 39 32 29 26 29 32 26 23 26 23 23 23 26 19 23 26 16
71 77 84 81 71 74 71 61 71 71 71 61 55 52 58 58 48 35 39 48 45 42 23 32 48 55 42 39 39 32 35 32 29 29 29 29 26 35 32 32 32 23 13
65 71 74 68 68 61 61 68 71 74 74 65 39 39 48 52 55 48 39 32 39 39 29 23 26 29 32 48 48 39 39 39 32 29 29 32 35 29 26 19 23 23 19
68 74 71 71 68 71 65 58 71 61 74 71 61 48 42 45 52 55 45 42 29 32 32 35 19 16 19 26 32 42 42 42 42 35 35 26 26 29 23 19 13 13 10
68 58 74 74 68 68 68 65 68 71 71 65 68 55 48 39 55 32 39 42 29 32 35 23 39 35 16 16 10 29 32 29 26 32 26 29 29 26 23 19 16 13 10
74 77 74 74 74 68 65 65 65 71 71 68 68 58 42 29 35 45 39 35 35 39 26 26 23 32 29 19 16 10 26 23 23 19 29 32 32 35 32 19 16 13 13
74 71 71 61 68 65 74 65 65 68 68 65 68 68 68 55 32 29 29 39 39 29 23 16 19 23 26 29 23 16 13 16 19 19 23 29 29 23 29 19 16 19 16
74 71 71 68 65 68 71 71 71 74 74 71 61 65 71 55 42 35 26 26 19 23 26 26 23 23 29 29 19 13 13 10 10 16 23 23 23 23 19 19 16 16 16
77 71 71 71 68 71 68 68 74 77 74 74 71 68 55 48 42 39 32 23 19 23 23 26 29 26 26 19 16 13 13 6 0 3 10 16 19 16 19 19 16 16 16
74 77 71 71 74 71 71 71 74 71 68 71 68 65 61 58 48 39 32 19 16 19 26 26 23 23 13 16 16 10 10 3 0 0 0 3 13 10 10 10 13 13 13
68 74 71 68 71 71 61 71 65 71 68 65 61 68 61 58 45 32 23 26 26 23 19 19 19 19 19 10 10 6 6 3 0 0 0 0 0 3 3 6 6 6 6
65 61 61 65 68 61 65 65 61 61 61 65 65 65 55 52 42 42 42 29 26 19 19 16 13 16 19 13 6 6 10 3 0 0 0 0 0 0 0 0 0 0 3
61 48 48 55 61 61 55 58 58 61 58 65 61 58 52 45 45 39 39 42 32 26 19 19 16 19 13 3 6 13 10 6 3 0 0 0 0 0 0 0 0 0 0
58 61 55 61 55 55 45 45 45 52 55 45 52 39 42 42 39 35 32 32 35 26 19 19 16 10 13 16 13 13 10 6 3 3 0 0 0 0 0 0 0 0 0
58 58 52 48 48 45 42 42 39 42 45 45 39 35 32 35 35 39 35 29 29 23 16 13 13 13 13 13 13 13 10 6 3 3 0 0 0 0 0 0 0 0 0
52 45 45 48 45 45 39 45 42 39 35 32 29 29 32 29 32 32 32 26 23 13 16 10 13 10 10 13 16 10 6 6 0 0 0 0 0 0 0 0 0 0 0
52 45 39 45 48 42 39 35 39 35 32 32 23 13 19 23 19 19 16 16 13 16 13 10 10 10 13 10 13 6 6 6 3 0 3 3 0 0 0 0 0 0 0
52 48 42 45 45 29 26 26 29 19 23 26 19 13 10 6 6 10 6 10 6 10 10 6 10 10 10 10 6 6 3 3 0 3 3 3 3 0 0 0 0 0 0
52 48 39 45 29 16 13 13 19 23 23 26 19 16 6 6 6 6 6 6 6 6 6 6 6 3 10 6 6 6 3 3 0 0 0 3 3 0 0 0 0 0 0
48 45 45 45 26 19 6 6 6 16 19 23 16 16 6 6 6 6 6 6 3 3 0 3 3 6 6 3 3 3 0 3 3 0 0 0 0 0 0 0 0 0 0
45 45 42 32 26 13 6 3 0 23 19 13 16 10 6 6 6 6 6 3 3 3 3 3 3 3 0 0 0 3 0 0 3 3 0 0 0 0 0 0 0 0 0
45 45 42 32 23 10 6 0 0 19 16 13 6 3 3 0 0 0 3 3 3 3 0 0 0 0 0 0 0 0 0 0 0 0 0 0 0 0 0 0 0 0 0
48 45 35 29 23 13 0 0 0 19 23 10 6 0 0 0 0 0 0 0 3 0 0 3 0 0 0 0 0 0 0 0 0 0 0 0 0 0 0 0 0 0 0

GEFSMA_con_cape1000_252.txt.gz
Probability
6 3 3 3 3 0 0 0 0 3 3 3 3 3 3 3 3 3 13 55 61 58 52 45 29 29 23 19 23 26 26 26 26 29 39 26 23 19 26 29 29 23 23
13 16 6 6 10 10 6 3 3 3 3 3 3 6 3 3 3 3 3 23 58 55 55 45 42 39 26 23 19 23 23 26 23 32 29 32 29 19 19 23 23 23 23
16 16 10 10 10 10 6 6 6 6 3 3 3 3 3 3 3 3 3 3 13 52 55 48 42 35 32 23 23 19 23 23 19 29 29 35 26 29 29 19 23 26 23
16 23 16 10 13 10 13 10 13 13 6 6 6 3 3 3 3 3 0 0 0 3 23 48 45 42 35 32 32 29 32 19 16 16 23 26 26 23 29 23 19 26 32
16 16 16 16 16 16 13 16 10 13 13 13 10 6 3 3 3 0 0 0 0 0 6 13 39 42 39 35 29 32 29 19 19 19 19 23 26 32 29 26 19 29 26
29 16 19 19 19 19 16 10 6 6 6 6 10 6 6 6 0 0 0 6 3 6 0 0 6 23 35 35 45 42 35 26 26 23 26 26 26 23 19 13 16 19 19
23 23 23 13 16 13 13 10 10 6 6 6 6 6 6 0 3 3 3 3 3 3 3 3 0 3 10 26 32 32 35 32 32 26 23 23 23 23 19 13 13 16 16
23 26 26 6 16 10 10 10 10 6 6 6 6 0 0 0 0 3 3 3 3 3 3 3 0 0 0 0 3 26 32 35 39 35 26 26 29 29 26 16 13 13 16
23 19 23 19 16 19 13 6 6 6 6 6 0 0 0 0 0 3 3 3 3 3 3 3 3 3 3 0 0 3 23 26 32 32 32 29 29 26 29 19 16 13 13
29 19 16 16 16 13 13 6 10 10 3 0 0 0 0 3 3 3 3 3 3 3 3 3 3 3 3 3 3 0 6 16 19 29 29 29 35 29 23 19 19 16 13
26 23 16 13 13 19 19 16 6 6 3 0 3 3 3 0 3 3 3 3 3 3 3 3 0 3 3 3 3 3 3 3 6 19 19 23 26 23 19 23 16 19 13
23 23 26 19 16 16 19 19 13 10 13 10 6 0 3 3 3 3 3 3 3 3 3 3 0 3 3 3 3 3 6 3 3 3 13 16 16 16 16 16 16 19 19
23 19 32 23 19 16 13 13 16 10 13 13 10 3 3 3 3 3 3 3 3 3 3 0 0 0 0 0 0 3 3 6 3 0 0 3 6 6 10 13 13 19 19
19 19 23 23 23 19 13 13 16 13 13 10 10 6 6 6 6 6 6 6 3 0 0 0 0 0 0 0 0 0 3 3 3 0 0 0 0 0 3 6 10 10 6
29 19 23 16 19 10 10 10 16 13 6 6 10 10 10 10 10 6 6 3 0 0 0 0 0 0 0 0 0 0 0 6 3 0 0 0 0 0 0 0 0 0 0
23 26 23 19 16 16 13 10 16 13 10 6 6 10 10 10 10 3 3 0 0 0 0 0 0 0 0 0 0 0 0 0 0 0 0 0 0 0 0 0 0 0 0
23 19 19 16 16 16 13 10 16 13 6 10 10 10 10 10 6 6 3 0 3 0 0 3 0 0 0 0 0 0 0 0 0 0 0 0 0 0 0 0 0 0 0
26 23 16 16 19 19 16 10 13 13 10 13 10 6 6 6 3 3 3 3 3 3 3 3 3 3 0 0 0 0 0 0 0 0 0 0 0 0 0 0 0 0 0
26 29 29 23 23 16 16 10 6 10 10 10 6 6 3 3 3 3 3 3 3 6 3 3 3 3 3 0 0 0 0 0 0 0 0 0 0 0 0 0 0 0 0
29 32 32 19 19 16 13 16 6 10 10 10 6 3 3 3 3 3 6 6 6 3 3 3 3 3 3 0 0 0 0 0 0 0 0 0 0 0 0 0 0 0 0
29 26 26 16 10 6 13 10 6 6 10 10 6 3 3 3 3 3 6 6 6 3 3 0 0 0 0 0 0 0 0 0 0 0 0 0 0 0 0 0 0 0 0
26 26 16 13 13 13 6 6 6 6 6 3 6 6 6 6 6 3 3 3 3 3 3 0 0 0 3 3 0 0 0 0 0 0 0 0 0 0 0 0 0 0 0
32 16 16 13 13 13 6 3 3 6 3 3 3 6 6 6 6 3 3 3 0 0 0 0 0 3 3 0 0 0 0 0 0 0 0 0 0 0 0 0 0 0 0
32 26 16 13 13 13 3 3 3 6 3 3 3 6 6 6 0 0 3 0 0 0 0 0 0 0 0 0 0 0 0 0 0 0 0 0 0 0 0 0 0 0 0
32 26 19 19 16 13 3 3 0 3 0 3 3 0 3 0 0 0 0 0 0 0 0 0 0 0 0 0 0 0 0 0 0 0 0 0 0 0 0 0 0 0 0
29 26 19 19 13 6 3 3 0 0 3 3 0 0 0 0 0 0 0 0 0 0 0 0 0 0 0 0 0 0 0 0 0 0 0 0 0 0 0 0 0 0 0

GEFSMA_con_cape1000_258.txt.gz
Probability
3 6 6 0 0 0 0 0 0 3 3 3 3 3 3 3 6 6 10 29 45 52 42 29 23 23 26 26 23 16 19 19 19 23 26 19 23 26 26 16 16 19 19
3 3 3 3 6 6 3 3 3 3 3 3 3 3 3 3 3 3 3 23 35 42 42 32 19 19 19 19 16 19 19 16 26 29 26 19 19 19 16 13 13 16 19
6 6 6 10 6 6 6 6 10 10 6 6 6 3 3 0 0 3 3 13 16 26 29 35 26 19 16 16 16 16 23 16 19 16 26 26 26 29 26 19 19 19 23
6 6 10 10 10 10 10 13 10 10 10 6 6 6 6 0 3 0 3 3 10 10 23 35 32 29 23 16 19 19 16 16 13 16 16 23 23 26 29 23 19 19 23
13 6 16 13 13 16 13 13 10 6 10 10 10 6 3 3 6 6 6 6 3 6 10 13 39 39 29 19 19 23 19 23 26 19 16 13 16 29 29 19 19 19 19
10 10 13 10 10 13 10 10 6 6 6 6 3 3 0 3 3 3 6 6 6 6 3 3 10 26 29 39 39 32 29 26 23 19 16 13 16 19 16 16 16 16 19
6 6 10 6 10 10 10 10 6 6 3 0 0 0 0 0 0 3 3 3 3 3 3 6 6 6 16 26 26 29 29 29 32 23 19 16 19 19 16 16 16 16 16
6 16 3 0 3 6 6 6 6 6 3 0 0 0 0 0 0 0 3 3 3 3 3 3 6 6 6 13 10 19 26 23 23 19 16 19 16 16 16 16 16 16 16
10 3 6 0 6 0 3 6 6 6 0 0 0 0 0 0 0 0 0 3 3 3 3 3 3 6 6 10 10 3 19 19 23 19 23 19 19 19 23 19 16 13 13
10 10 6 3 3 3 3 6 3 3 3 0 0 0 0 0 3 0 0 3 3 3 3 0 0 3 6 6 6 0 3 6 13 19 19 19 23 19 19 16 13 16 13
10 10 10 6 3 3 6 3 3 3 3 0 0 0 0 0 0 3 3 3 3 3 0 0 0 0 0 0 0 0 0 0 3 10 16 16 19 19 19 16 19 19 19
10 10 10 13 10 6 6 3 3 3 6 0 0 0 0 3 3 3 3 3 3 3 0 0 0 0 0 0 0 0 0 0 0 0 6 6 13 13 19 19 19 19 19
10 13 10 10 13 10 6 6 6 6 3 3 0 0 0 0 0 3 3 3 3 0 0 0 0 3 0 6 0 0 0 0 0 0 0 3 6 3 3 13 13 13 13
13 6 10 13 10 10 6 6 10 10 6 6 6 3 3 3 0 3 3 6 3 0 0 3 0 0 0 0 0 0 0 0 0 0 0 0 0 0 0 3 3 3 3
19 13 13 13 10 13 10 6 10 10 10 10 6 6 6 10 10 3 3 3 3 6 3 0 3 0 0 0 0 0 0 0 0 0 0 0 0 0 0 0 0 0 0
13 13 13 6 13 13 13 6 10 10 6 6 6 10 6 6 6 3 0 0 0 3 6 3 0 3 3 0 0 0 0 0 0 0 0 0 0 0 0 0 0 0 0
13 10 13 10 6 13 13 13 6 10 6 6 10 6 6 3 3 3 3 0 0 0 0 3 0 3 3 3 0 0 0 0 0 0 0 0 0 0 0 0 0 0 0
13 13 13 16 13 13 13 13 10 10 6 10 6 6 6 3 3 3 3 3 0 0 0 6 3 6 3 0 0 0 0 0 0 0 0 0 0 0 0 0 0 0 0
16 19 19 26 19 16 10 10 6 6 6 6 6 6 3 3 3 3 3 3 3 3 3 3 6 6 3 3 0 0 0 0 0 0 0 0 0 0 0 0 0 0 0
16 16 23 19 19 16 10 6 10 10 10 6 6 6 3 3 3 3 3 3 3 3 3 3 6 6 3 0 3 0 0 0 0 0 0 0 0 0 0 0 0 0 0
19 16 19 16 13 13 6 10 6 6 10 10 6 3 3 3 3 3 3 3 3 3 3 6 6 3 3 3 3 3 0 0 0 0 0 0 0 0 0 0 0 0 0
16 16 16 19 13 13 3 3 3 6 6 10 10 3 3 3 3 3 3 3 3 3 6 6 6 3 3 3 3 3 0 0 0 0 0 0 0 0 0 0 0 0 0
19 19 19 13 10 6 3 0 0 3 6 6 10 6 3 3 3 3 3 3 3 0 3 3 3 3 3 3 0 0 0 0 0 0 0 0 0 0 0 0 0 0 0
23 19 16 16 10 10 3 0 0 0 3 6 6 6 3 3 3 3 3 3 3 0 0 0 0 0 0 0 0 0 0 0 0 0 0 0 0 0 0 0 0 0 0
23 23 19 10 10 10 3 0 0 3 3 3 3 3 3 3 0 0 3 3 0 0 0 0 0 0 0 0 0 0 0 0 0 0 0 0 0 0 0 0 0 0 0
23 19 19 13 10 10 6 3 0 3 3 3 0 0 0 0 0 0 0 0 0 0 0 0 0 0 0 0 0 0 0 0 0 0 0 0 0 0 0 0 0 0 0